Time,TemperatureF,DewpointF,PressureIn,WindDirection,WindDirectionDegrees,WindSpeedMPH,WindSpeedGustMPH,Humidity,HourlyPrecipIn,Conditions,Clouds,dailyrainin,SoftwareType,DateUTC
2013-10-20 00:00:00,31.0,-99.9,29.58,SW,230,-999.0,-999.0,-999,-99.99,,,-99.99,,2013-10-20 00:00:00,
2013-10-20 00:42:00,31.0,-99.9,29.58,SW,230,-999.0,-999.0,-999,-99.99,,,-99.99,,2013-10-20 00:42:00,
2013-10-20 00:52:00,31.0,-99.9,29.58,SW,230,-999.0,-999.0,-999,-99.99,,,-99.99,,2013-10-20 00:52:00,
2013-10-20 01:00:00,31.0,-99.9,29.57,WSW,250,18.0,-999.0,-999,-99.99,,,-99.99,,2013-10-20 01:00:00,
2013-10-20 01:42:00,31.0,-99.9,29.57,WSW,250,18.0,-999.0,-999,-99.99,,,-99.99,,2013-10-20 01:42:00,
2013-10-20 01:53:00,31.0,-99.9,29.57,WSW,250,18.0,-999.0,-999,-99.99,,,-99.99,,2013-10-20 01:53:00,
2013-10-20 02:00:00,32.0,-99.9,29.57,WSW,250,17.0,-999.0,-999,-99.99,,,-99.99,,2013-10-20 02:00:00,
2013-10-20 02:42:00,32.0,-99.9,29.57,WSW,250,17.0,-999.0,-999,-99.99,,,-99.99,,2013-10-20 02:42:00,
2013-10-20 02:52:00,32.0,-99.9,29.57,WSW,250,17.0,-999.0,-999,-99.99,,,-99.99,,2013-10-20 02:52:00,
2013-10-20 03:00:00,-999.0,-99.9,-100.00,WSW,250,18.0,-999.0,-999,-99.99,,,-99.99,,2013-10-20 03:00:00,
2013-10-20 03:44:00,32.0,-99.9,29.57,WSW,250,18.0,-999.0,-999,-99.99,,,-99.99,,2013-10-20 03:44:00,
2013-10-20 03:55:00,32.0,-99.9,29.57,WSW,250,18.0,-999.0,-999,-99.99,,,-99.99,,2013-10-20 03:55:00,
2013-10-20 04:00:00,32.0,-99.9,29.57,SSE,150,29.0,-999.0,-999,-99.99,,,-99.99,,2013-10-20 04:00:00,
2013-10-20 04:44:00,32.0,-99.9,29.57,SSE,150,29.0,-999.0,-999,-99.99,,,-99.99,,2013-10-20 04:44:00,
2013-10-20 04:54:00,32.0,-99.9,29.57,SSE,150,29.0,-999.0,-999,-99.99,,,-99.99,,2013-10-20 04:54:00,
2013-10-20 05:00:00,32.0,-99.9,29.56,SSE,150,32.0,-999.0,-999,-99.99,,,-99.99,,2013-10-20 05:00:00,
2013-10-20 05:43:00,32.0,-99.9,29.56,SSE,150,32.0,-999.0,-999,-99.99,,,-99.99,,2013-10-20 05:43:00,
2013-10-20 05:52:00,32.0,-99.9,29.56,SSE,150,32.0,-999.0,-999,-99.99,,,-99.99,,2013-10-20 05:52:00,
2013-10-20 06:00:00,33.0,33.0,29.59,SSE,150,32.0,-999.0,100,-99.99,,,-99.99,,2013-10-20 06:00:00,
2013-10-20 06:42:00,33.0,33.0,29.59,SSE,150,32.0,-999.0,100,-99.99,,,-99.99,,2013-10-20 06:42:00,
2013-10-20 06:52:00,33.0,33.0,29.59,SSE,150,32.0,-999.0,100,-99.99,,,-99.99,,2013-10-20 06:52:00,
2013-10-20 07:00:00,33.0,33.0,29.59,SSE,160,32.0,-999.0,100,-99.99,,,-99.99,,2013-10-20 07:00:00,
2013-10-20 07:42:00,33.0,33.0,29.59,SSE,160,32.0,-999.0,100,-99.99,,,-99.99,,2013-10-20 07:42:00,
2013-10-20 07:52:00,33.0,33.0,29.59,SSE,160,32.0,-999.0,100,-99.99,,,-99.99,,2013-10-20 07:52:00,
2013-10-20 08:00:00,33.0,33.0,29.58,SE,130,23.0,-999.0,100,-99.99,,,-99.99,,2013-10-20 08:00:00,
2013-10-20 08:41:00,33.0,33.0,29.58,SE,130,23.0,-999.0,100,-99.99,,,-99.99,,2013-10-20 08:41:00,
2013-10-20 08:52:00,33.0,33.0,29.58,SE,130,23.0,-999.0,100,-99.99,,,-99.99,,2013-10-20 08:52:00,
2013-10-20 09:00:00,33.0,33.0,29.58,SSE,150,26.0,-999.0,100,-99.99,,,-99.99,,2013-10-20 09:00:00,
2013-10-20 09:43:00,33.0,33.0,29.58,SSE,150,26.0,-999.0,100,-99.99,,,-99.99,,2013-10-20 09:43:00,
2013-10-20 09:53:00,33.0,33.0,29.58,SSE,150,26.0,-999.0,100,-99.99,,,-99.99,,2013-10-20 09:53:00,
2013-10-20 10:00:00,33.0,33.0,29.56,SE,140,25.0,-999.0,100,-99.99,,,-99.99,,2013-10-20 10:00:00,
2013-10-20 10:43:00,33.0,33.0,29.56,SE,140,25.0,-999.0,100,-99.99,,,-99.99,,2013-10-20 10:43:00,
2013-10-20 10:52:00,33.0,33.0,29.56,SE,140,25.0,-999.0,100,-99.99,,,-99.99,,2013-10-20 10:52:00,
2013-10-20 11:00:00,33.0,33.0,29.55,SE,130,28.0,-999.0,100,-99.99,,,-99.99,,2013-10-20 11:00:00,
2013-10-20 11:42:00,33.0,33.0,29.55,SE,130,28.0,-999.0,100,-99.99,,,-99.99,,2013-10-20 11:42:00,
2013-10-20 11:52:00,33.0,33.0,29.55,SE,130,28.0,-999.0,100,-99.99,,,-99.99,,2013-10-20 11:52:00,
2013-10-20 12:00:00,33.0,33.0,29.53,SE,130,29.0,-999.0,100,-99.99,,,-99.99,,2013-10-20 12:00:00,
2013-10-20 12:42:00,33.0,33.0,29.53,SE,130,29.0,-999.0,100,-99.99,,,-99.99,,2013-10-20 12:42:00,
2013-10-20 12:52:00,33.0,33.0,29.53,SE,130,29.0,-999.0,100,-99.99,,,-99.99,,2013-10-20 12:52:00,
2013-10-20 13:00:00,33.0,33.0,29.54,SE,130,26.0,-999.0,100,-99.99,,,-99.99,,2013-10-20 13:00:00,
2013-10-20 13:41:00,33.0,33.0,29.54,SE,130,26.0,-999.0,100,-99.99,,,-99.99,,2013-10-20 13:41:00,
2013-10-20 13:52:00,33.0,33.0,29.54,SE,130,26.0,-999.0,100,-99.99,,,-99.99,,2013-10-20 13:52:00,
2013-10-20 14:00:00,34.0,34.0,29.54,SE,140,24.0,-999.0,100,-99.99,,,-99.99,,2013-10-20 14:00:00,
2013-10-20 14:42:00,34.0,34.0,29.54,SE,140,24.0,-999.0,100,-99.99,,,-99.99,,2013-10-20 14:42:00,
2013-10-20 14:52:00,34.0,34.0,29.54,SE,140,24.0,-999.0,100,-99.99,,,-99.99,,2013-10-20 14:52:00,
2013-10-20 15:00:00,34.0,34.0,29.51,SE,130,24.0,-999.0,100,-99.99,,,-99.99,,2013-10-20 15:00:00,
2013-10-20 15:44:00,34.0,34.0,29.51,SE,130,24.0,-999.0,100,-99.99,,,-99.99,,2013-10-20 15:44:00,
2013-10-20 15:54:00,34.0,34.0,29.51,SE,130,24.0,-999.0,100,-99.99,,,-99.99,,2013-10-20 15:54:00,
2013-10-20 16:00:00,34.0,33.0,29.50,ESE,120,28.0,-999.0,99,-99.99,,,-99.99,,2013-10-20 16:00:00,
2013-10-20 16:43:00,34.0,33.0,29.50,ESE,120,28.0,-999.0,99,-99.99,,,-99.99,,2013-10-20 16:43:00,
2013-10-20 16:53:00,34.0,33.0,29.50,ESE,120,28.0,-999.0,99,-99.99,,,-99.99,,2013-10-20 16:53:00,
2013-10-20 17:00:00,34.0,34.0,29.53,SSE,160,11.0,-999.0,99,-99.99,,,-99.99,,2013-10-20 17:00:00,
2013-10-20 17:42:00,34.0,34.0,29.53,SSE,160,11.0,-999.0,99,-99.99,,,-99.99,,2013-10-20 17:42:00,
2013-10-20 17:52:00,34.0,34.0,29.53,SSE,160,11.0,-999.0,99,-99.99,,,-99.99,,2013-10-20 17:52:00,
2013-10-20 18:00:00,33.0,33.0,29.49,ESE,120,25.0,-999.0,99,-99.99,,,-99.99,,2013-10-20 18:00:00,
2013-10-20 18:42:00,33.0,33.0,29.49,ESE,120,25.0,-999.0,99,-99.99,,,-99.99,,2013-10-20 18:42:00,
2013-10-20 18:52:00,33.0,33.0,29.49,ESE,120,25.0,-999.0,99,-99.99,,,-99.99,,2013-10-20 18:52:00,
2013-10-20 19:00:00,33.0,33.0,29.51,SE,140,18.0,-999.0,99,-99.99,,,-99.99,,2013-10-20 19:00:00,
2013-10-20 19:41:00,33.0,33.0,29.51,SE,140,18.0,-999.0,99,-99.99,,,-99.99,,2013-10-20 19:41:00,
2013-10-20 19:52:00,33.0,33.0,29.51,SE,140,18.0,-999.0,99,-99.99,,,-99.99,,2013-10-20 19:52:00,
2013-10-20 20:00:00,34.0,33.0,29.51,SE,140,15.0,-999.0,98,-99.99,,,-99.99,,2013-10-20 20:00:00,
2013-10-20 20:42:00,34.0,33.0,29.51,SE,140,15.0,-999.0,98,-99.99,,,-99.99,,2013-10-20 20:42:00,
2013-10-20 20:52:00,34.0,33.0,29.51,SE,140,15.0,-999.0,98,-99.99,,,-99.99,,2013-10-20 20:52:00,
2013-10-20 21:00:00,33.0,33.0,29.52,SSE,150,18.0,-999.0,98,-99.99,,,-99.99,,2013-10-20 21:00:00,
2013-10-20 21:43:00,33.0,33.0,29.52,SSE,150,18.0,-999.0,98,-99.99,,,-99.99,,2013-10-20 21:43:00,
2013-10-20 21:53:00,33.0,33.0,29.52,SSE,150,18.0,-999.0,98,-99.99,,,-99.99,,2013-10-20 21:53:00,
2013-10-20 22:00:00,33.0,33.0,29.53,South,170,7.0,-999.0,98,-99.99,,,-99.99,,2013-10-20 22:00:00,
2013-10-20 22:43:00,33.0,33.0,29.53,South,170,7.0,-999.0,98,-99.99,,,-99.99,,2013-10-20 22:43:00,
2013-10-20 22:53:00,33.0,33.0,29.53,South,170,7.0,-999.0,98,-99.99,,,-99.99,,2013-10-20 22:53:00,
2013-10-20 23:00:00,34.0,33.0,29.53,South,170,15.0,-999.0,97,-99.99,,,-99.99,,2013-10-20 23:00:00,
2013-10-20 23:42:00,34.0,33.0,29.53,South,170,15.0,-999.0,97,-99.99,,,-99.99,,2013-10-20 23:42:00,
2013-10-20 23:52:00,34.0,33.0,29.53,South,170,15.0,-999.0,97,-99.99,,,-99.99,,2013-10-20 23:52:00,